Date,TemperatureHighF,TemperatureAvgF,TemperatureLowF,DewpointHighF,DewpointAvgF,DewpointLowF,HumidityHigh,HumidityAvg,HumidityLow,PressureMaxIn,PressureMinIn,WindSpeedMaxMPH,WindSpeedAvgMPH,GustSpeedMaxMPH,PrecipitationSumIn
2013-3-1,36.3,33.0,29.8,34.0,28.5,24.0,95,84,71,30.01,29.87,3,0,6,0.01
2013-3-2,32.4,29.1,26.9,28.0,24.2,22.0,87,81,70,30.02,29.96,6,1,6,0.00
2013-3-3,30.6,27.4,25.9,24.0,22.2,18.0,89,81,70,30.09,30.00,4,1,12,0.00
2013-3-4,42.5,29.0,16.0,24.0,19.1,14.0,91,69,38,30.21,30.09,7,1,10,0.01
2013-3-5,53.7,38.3,24.8,42.0,30.2,22.0,95,75,45,30.11,29.57,5,0,7,0.44
2013-3-6,39.6,35.1,31.7,37.0,32.7,30.0,94,91,83,30.17,29.59,4,0,8,0.29
2013-3-7,40.8,36.4,34.1,34.0,32.3,31.0,93,86,73,30.32,30.16,7,0,8,0.00
2013-3-8,45.9,35.7,24.5,32.0,27.5,23.0,94,74,50,30.45,30.31,6,1,12,0.00
2013-3-9,62.8,38.1,20.0,36.0,27.0,18.0,94,71,23,30.44,30.18,4,0,6,0.00
2013-3-10,75.3,52.4,31.2,42.0,33.5,30.0,95,58,19,30.18,29.97,4,1,9,0.00
2013-3-11,62.2,54.9,44.3,51.0,41.7,35.0,91,63,40,30.00,29.69,17,2,17,0.09
2013-3-12,51.9,40.3,34.0,49.0,35.3,31.0,93,82,70,30.05,29.79,4,0,9,0.06
2013-3-13,36.7,32.3,29.3,32.0,27.6,19.0,96,83,56,30.24,29.99,8,1,13,0.02
2013-3-14,45.0,32.4,23.4,22.0,19.7,16.0,86,62,33,30.34,30.19,10,1,14,0.00
2013-3-15,56.2,36.5,19.0,38.0,27.2,17.0,92,73,42,30.21,29.85,6,1,9,0.00
2013-3-16,64.4,49.5,40.2,52.0,44.5,37.0,98,84,58,29.95,29.62,7,1,14,0.26
2013-3-17,39.7,37.4,34.4,37.0,30.8,28.0,95,78,63,30.16,29.95,4,1,7,0.00
2013-3-18,49.6,42.2,35.5,46.0,39.9,30.0,97,91,79,30.09,29.67,4,1,11,0.83
2013-3-19,50.7,43.3,33.8,47.0,28.1,13.0,96,60,26,30.04,29.73,15,2,19,0.07
2013-3-20,47.5,35.2,22.0,24.0,19.5,15.0,89,56,32,30.06,29.82,13,2,22,0.00
2013-3-21,30.8,26.0,18.7,18.0,13.2,10.0,80,59,44,30.04,29.92,9,1,13,0.00
2013-3-22,45.8,31.3,19.0,23.0,17.8,15.0,86,60,33,30.08,29.99,9,1,11,0.00
2013-3-23,53.8,33.0,17.3,27.0,20.2,15.0,92,66,24,30.11,29.97,6,1,9,0.00
2013-3-24,44.1,35.3,25.3,36.0,28.7,22.0,95,78,48,29.98,29.47,5,0,8,0.16
2013-3-25,36.1,33.9,32.6,33.0,32.0,31.0,96,93,87,29.80,29.46,3,0,7,0.63
2013-3-26,42.8,35.9,31.9,36.0,32.8,31.0,96,89,68,30.16,29.81,7,1,13,0.31
2013-3-27,42.9,36.2,31.3,34.0,30.9,29.0,96,82,58,30.25,30.16,7,0,11,0.03
2013-3-28,46.1,37.7,26.5,34.0,29.0,25.0,95,73,49,30.31,30.23,6,1,10,0.00
2013-3-29,55.4,43.1,32.5,36.0,31.2,25.0,93,67,33,30.32,30.19,11,1,11,0.00
2013-3-30,60.9,43.5,28.7,36.0,29.2,23.0,94,64,23,30.27,30.02,5,1,8,0.00
2013-3-31,52.3,43.6,33.1,50.0,41.3,30.0,96,91,86,30.01,29.77,5,0,7,0.16